SKYSAT-C10 (42988 NORAD) Tracking and Keplerian Element Data

This shows tracking and keplerian element data for the satellite.

Feedback or suggestion? Click here.




ElementValue
Catalog42988
NameSKYSAT-C10
Epoch Orbit4962
Epoch Day266.56101091
Epoch Year2018
RAAN18.8594
Inclination97.4116
Eccentricity0.000641
Argument of Perigee98.5386
Mean Anonmoly261.6576
Mean Motion15.21471359
Decay Rate6.42E-06
L11 42988U 17068B 18266.56101091 .00000642 00000-0 31617-4 0 9993
L22 42988 97.4116 18.8594 0006410 98.5386 261.6576 15.21471359 49628

Live tracking and technical data element details for SKYSAT-C10 (NORAD 42988). SKYSAT-C10 can be tracked NOW for your location showing map with azimuth and elevation plus other details from your city location.

Track the satellite on the map from your city or location and see movement details for azimuth, elevation, latitude, longitude, range, height, and movement on the map or in text.







IsCatalogInMostPopularTable: catalog: 42988, numindb: 131
Update: records affected: 1



GetName: 42988 SKYSAT-C10

Hit Count: updated at: Tue, 25 Sep 2018 15:34:46 GMT